Location: Burbank
(38.7788°N, 114.0429°W)
Time: 13:57:28
(UTC+00:00)

Tiros 1 despin weight - Pass Details

Date: 16 May 2026
Orbit: 554 x 591 km, 48.2° (Epoch: 6 June)

Event Time Altitude Azimuth Distance (km) Brightness Sun altitude
Rises 17:03:03 0° 304° (NW) 2,735 ? 52.3°
Reaches altitude 10° 17:05:23 10° 311° (NW) 1,836 ? 52.7°
Maximum altitude 17:09:24 45° 24° (NNE) 758 ? 53.4°
Drops below altitude 10° 17:13:26 10° 99° (E) 1,829 ? 54.2°
Sets 17:15:45 0° 105° (ESE) 2,723 ? 54.6°
